Featured Flight

MET3002 - Chicago to Detroit

Boeing 737-200
711MT
0 hrs 45 mins
199 nm
Scheduled - Daily

Bid/PiRep Status

Bid was submitted on Dec 28 2016.

PiRep # 74494: Approved by Dave Nichols on December 30th, 2016 2:54 UTC

Departure

Departing from
Chicago (MDW)
Departure gate
Scheduled Departure
GMT 1330
Local 0830
METAR KMDW 210953Z 28004KT 10SM SCT090 OVC250 24/22 A2999 RMK AO2 SLP144 T02390217
TAF KMDW 210910Z 2109/2206 10004KT P6SM BKN090 OVC250 FM211500 12006KT P6SM BKN100 PROB30 2122/2202 5SM TSRA BKN050CB FM220500 18007KT P6SM BKN100

Route Map

Planning Resources

KMDW-GIJ-LFD-DXQ-MDTW
CISRO2.GIJ LFD.MIZAR3
KMDW MDW4 LEWKE GIJ LFD MIZAR3 KDTW
KMDW GIJ J554 CRL KDTW
KMDW-GIJ-BENJO-CRL-KDTW
Route:
OFP Layout:
Units:
Detailed Navlog:
ETOPS Planning:
Plan Stepclimbs:
Runway Analysis:
Include NOTAMS:
FIR NOTAMS:
Flight Maps:

Popularity

Hub Current Bids PiReps this month Total PiReps
KMCI 0 0 3
KLAX 0 0 0
KBOS 0 0 0